{"data":{"norad_id":59254,"epoch":"2026-05-24T14:25:52.447008Z","epoch_age_seconds":106562,"freshness":"FRESH","line1":"1 59254U 24050A   26144.60130147 -.00000335  00000+0  12318-5 0  9996","line2":"2 59254  53.1601 185.3719 0001191  75.1178 284.9957 15.34393433123365","mean_motion":15.34393433,"eccentricity":0.0001191,"inclination_deg":53.1601,"raan_deg":185.3719,"arg_perigee_deg":75.1178,"mean_anomaly_deg":284.9957,"bstar":1.2318e-6,"rev_number":12336,"period_min":93.848159737269,"perigee_km":461.90801238738,"apogee_km":463.53750518192,"semimajor_km":6840.8597587847,"source":"CELESTRAK","updated_at":"2026-05-25T13:38:18.873881Z"}}